FW9581 Weather Reports


Display with metric or nautical units.
time (UTC)temp
F
wind
direction
speed
MPH
gust
MPH
rain 1hr
in
rain 24hr
in
rain mn
in
humidity
%
barometer
mb
20260504033101 56 219 0.0 5.0 0.00 0.00 0.00 86 1019.6
20260504031626 56 222 1.0 5.0 0.00 0.00 0.00 86 1019.6
20260504030002 56 230 0.0 4.0 0.00 0.00 0.00 86 1019.7
20260504024606 56 230 0.0 4.0 0.00 0.00 0.00 85 1019.8
20260504023123 56 230 0.0 3.0 0.00 0.00 0.00 86 1019.9
20260504021635 56 230 0.0 0.0 0.00 0.00 0.00 85 1020.0
20260504020006 56 230 1.0 3.0 0.00 0.00 0.00 85 1019.8
20260504014523 56 230 1.0 2.0 0.00 0.00 0.00 85 1019.9
20260504013143 56 230 0.0 0.0 0.00 0.00 0.00 85 1019.8
20260504011618 57 230 0.0 1.0 0.00 0.00 0.00 84 1019.9
20260504010136 57 230 0.0 0.0 0.00 0.00 0.00 83 1019.9
20260504004648 57 230 0.0 1.0 0.00 0.00 0.00 83 1019.9
20260504003059 58 230 0.0 3.0 0.00 0.00 0.00 83 1019.9
20260504001614 58 230 0.0 4.0 0.00 0.00 0.00 82 1020.0
20260504000133 58 230 1.0 4.0 0.00 0.00 0.00 82 1020.0
20260503234556 58 230 2.0 3.0 0.00 0.00 0.00 82 1020.0
20260503233111 58 230 0.0 2.0 0.00 0.00 0.00 82 1020.1
20260503231636 58 230 1.0 4.0 0.00 0.00 0.00 81 1020.3
20260503230053 58 230 2.0 4.0 0.00 0.00 0.00 81 1020.2
20260503224620 59 230 1.0 4.0 0.00 0.00 0.00 80 1020.3
20260503223135 59 230 1.0 4.0 0.00 0.00 0.00 81 1020.3
20260503221601 59 230 0.0 3.0 0.00 0.00 0.00 80 1020.2
20260503220023 59 230 1.0 3.0 0.00 0.00 0.00 80 1020.2
20260503214623 59 230 1.0 4.0 0.00 0.00 0.00 80 1020.2
20260503213004 59 230 2.0 5.0 0.00 0.00 0.00 80 1020.2
20260503211520 59 230 1.0 4.0 0.00 0.00 0.00 80 1020.1
20260503210006 59 230 1.0 4.0 0.00 0.00 0.00 80 1020.1
20260503204621 59 230 2.0 5.0 0.00 0.00 0.00 80 1020.1
20260503203128 59 230 0.0 4.0 0.00 0.00 0.00 80 1020.1
20260503201508 59 230 1.0 6.0 0.00 0.00 0.00 79 1020.1
20260503200121 60 239 2.0 8.0 0.00 0.00 0.00 77 1020.2
20260503194632 60 242 4.0 8.0 0.00 0.00 0.00 77 1020.0
20260503193144 60 245 5.0 11.0 0.00 0.00 0.00 76 1019.9
20260503191520 60 241 5.0 10.0 0.00 0.00 0.00 76 1019.6
20260503190027 60 243 4.0 8.0 0.00 0.00 0.00 75 1019.6
20260503184626 60 218 3.0 8.0 0.00 0.00 0.00 74 1019.6
20260503183129 60 224 4.0 9.0 0.00 0.00 0.00 73 1019.4
20260503181556 60 243 4.0 10.0 0.00 0.00 0.00 71 1019.2
20260503180116 61 232 4.0 11.0 0.00 0.00 0.00 70 1019.0
20260503174627 61 241 7.0 12.0 0.00 0.00 0.00 68 1019.1
20260503173137 62 247 6.0 11.0 0.00 0.00 0.00 67 1018.9
20260503171600 62 246 5.0 9.0 0.00 0.00 0.00 65 1018.7
20260503170119 62 220 6.0 9.0 0.00 0.00 0.00 66 1018.8
20260503160115 64 241 7.0 16.0 0.00 0.00 0.00 60 1019.2
20260503150125 65 268 10.0 17.0 0.00 0.00 0.00 60 1019.5
20260503140135 65 255 9.0 20.0 0.00 0.00 0.00 55 1019.8
20260503130139 68 245 8.0 17.0 0.00 0.00 0.00 47 1019.9
20260503090137 68 247 3.0 7.0 0.00 0.00 0.00 36 1021.0
20260503081608 66 1 0.0 4.0 0.00 0.00 0.00 42 1021.1
20260503080122 0 0.0 0.0 0.00 0.00 0.00 1021.2
20260503071615 62 346 1.0 5.0 0.00 0.00 0.00 53 1021.4
20260503070124 62 346 2.0 5.0 0.00 0.00 0.00 59 1021.4
20260503054506 60 241 0.0 1.0 0.00 0.00 0.00 52 1021.3
20260503053058 58 240 0.0 0.0 0.00 0.00 0.00 58 1021.1
20260503051616 54 240 0.0 0.0 0.00 0.00 0.00 71 1021.2
20260503050124 53 240 0.0 0.0 0.00 0.00 0.00 74 1021.0
20260503044626 50 240 0.0 0.0 0.00 0.00 0.00 78 1021.0
20260503043140 50 240 0.0 0.0 0.00 0.00 0.00 77 1020.9
20260503041511 50 238 0.0 0.0 0.00 0.00 0.00 76 1020.7
20260503040114 50 238 0.0 0.0 0.00 0.00 0.00 77 1020.7
20260503034630 50 238 0.0 0.0 0.00 0.00 0.00 77 1020.6